Lincoln, NE

4:50 PM CDT on March 23, 2017 (GMT -0500)
Lincoln Municipal

Weather History for KLNK - November, 2013

Change the Weather History Date:

Sunday, November 24, 2013

  Actual Average Record
Temperature  
Mean Temperature 21 °F 34 °F  
Max Temperature 33 °F 45 °F 72 °F (2011)
Min Temperature 8 °F 23 °F 1 °F (1898)
Degree Days  
Heating Degree Days 44 31  
Month to date heating degree days 627 588  
Since 1 July heating degree days 1083 1067  
Cooling Degree Days 0 0  
Month to date cooling degree days 0 0  
Year to date cooling degree days 1236 1173  
Moisture  
Dew Point 6 °F    
Average Humidity 57    
Maximum Humidity 80    
Minimum Humidity 33    
Precipitation  
Precipitation T in 0.05 in 1.45 in (2001)
Month to date precipitation 1.22 1.19  
Year to date precipitation 26.49 27.76  
Snow  
Snow T in 0.10 in - ()
Month to date snowfall 0.2 1.4  
Since 1 July snowfall 0.2 2.1  
Snow Depth 0.00 in    
Sea Level Pressure  
Sea Level Pressure 30.52 in    
Wind  
Wind Speed 13 mph (South)    
Max Wind Speed 23 mph    
Max Gust Speed 27 mph    
Visibility 10 miles    
Events      
T = Trace of Precipitation, MM = Missing Value Source: NWS Daily Summary

Daily Weather History Graph

Daily Weather History Graph

Search for Another Location

Airport or City:

Trip Planner

Search our weather history database for the weather conditions in past years. The results will help you decide how hot, cold, wet, or windy it might be!

Date:

Astronomy

Nov. 24, 2013 Rise Set
Actual Time 7:24 AM CST 5:02 PM CST
Civil Twilight 6:54 AM CST 5:32 PM CST
Nautical Twilight 6:21 AM CST 6:06 PM CST
Astronomical Twilight 5:48 AM CST 6:39 PM CST
Moon 11:30 PM CST (11/24) 12:12 PM CST (11/24)
Length of Visible Light 10h 37m
Length of Day
9h 37m
Waning Gibbous, 60% of the Moon is Illuminated
Nov 24
Waning Gibbous
Nov 25
Last Quarter
Dec 2
New
Dec 9
First Quarter
Dec 17
Full

Hourly Weather History & Observations

Time (CST) Temp. Windchill Dew Point Humidity Pressure Visibility Wind Dir Wind Speed Gust Speed Precip Events Conditions
12:54 AM 10.9 °F 0.2 °F 3.9 °F 73% 30.80 in 10.0 mi South 6.9 mph - N/A   Clear
1:54 AM 10.0 °F -0.9 °F 3.0 °F 73% 30.77 in 10.0 mi SSE 6.9 mph - N/A   Clear
2:54 AM 9.0 °F -3.2 °F 3.0 °F 77% 30.77 in 10.0 mi South 8.1 mph - N/A   Clear
3:54 AM 10.0 °F 3.6 °F 3.0 °F 73% 30.75 in 10.0 mi South 3.5 mph - N/A   Clear
4:54 AM 9.0 °F -0.9 °F 3.0 °F 77% 30.74 in 10.0 mi South 5.8 mph - N/A   Clear
5:54 AM 9.0 °F -3.2 °F 3.0 °F 77% 30.72 in 10.0 mi South 8.1 mph - N/A   Clear
6:54 AM 10.0 °F -1.9 °F 5.0 °F 80% 30.72 in 10.0 mi South 8.1 mph - N/A   Clear
7:54 AM 12.0 °F -0.4 °F 6.1 °F 77% 30.69 in 10.0 mi South 9.2 mph - N/A   Clear
8:54 AM 16.0 °F 2.3 °F 8.1 °F 71% 30.67 in 10.0 mi South 12.7 mph - N/A   Clear
9:54 AM 21.9 °F 8.7 °F 8.1 °F 55% 30.64 in 10.0 mi SSW 15.0 mph - N/A   Clear
10:54 AM 26.1 °F 14.0 °F 7.0 °F 44% 30.61 in 10.0 mi South 15.0 mph - N/A   Clear
11:54 AM 28.9 °F 17.3 °F 7.0 °F 40% 30.56 in 10.0 mi South 16.1 mph - N/A   Clear
12:54 PM 33.1 °F 22.6 °F 9.0 °F 37% 30.51 in 10.0 mi South 16.1 mph - N/A   Clear
1:54 PM 32.0 °F 21.2 °F 7.0 °F 35% 30.46 in 10.0 mi South 16.1 mph - N/A   Clear
2:54 PM 30.9 °F 20.7 °F 8.1 °F 38% 30.43 in 10.0 mi South 13.8 mph - N/A   Clear
3:54 PM 32.0 °F 21.2 °F 9.0 °F 38% 30.40 in 10.0 mi South 16.1 mph - N/A   Clear
4:54 PM 30.0 °F 17.2 °F 10.0 °F 43% 30.37 in 10.0 mi South 20.7 mph 24.2 mph N/A   Clear
5:54 PM 28.0 °F 15.7 °F 8.1 °F 43% 30.34 in 10.0 mi South 17.3 mph 25.3 mph N/A   Mostly Cloudy
6:54 PM 28.0 °F 15.7 °F 7.0 °F 41% 30.33 in 10.0 mi South 17.3 mph 24.2 mph N/A   Overcast
7:54 PM 28.9 °F 16.5 °F 7.0 °F 40% 30.32 in 10.0 mi South 18.4 mph 23.0 mph N/A   Overcast
8:54 PM 28.0 °F 16.5 °F 8.1 °F 43% 30.31 in 10.0 mi South 15.0 mph - 0.00 in   Overcast
9:54 PM 27.0 °F 15.2 °F 7.0 °F 43% 30.29 in 10.0 mi South 15.0 mph - N/A   Overcast
10:54 PM 26.1 °F 15.0 °F 7.0 °F 44% 30.27 in 10.0 mi SSW 12.7 mph - N/A   Overcast
11:54 PM 25.0 °F 15.5 °F 7.0 °F 46% 30.27 in 10.0 mi SSW 9.2 mph - N/A   Overcast